User: anonymous   Login
Location: Mt. Chestnut Observatory
(40.9038°N, 79.9956°W)
Time: 16:06:42
(UTC-04:00)
Language:

Cosmos 2034 Rocket - Orbit

View from above orbital plane
View from above orbital plane
View from above satellite
View from above satellite

Ground track
Ground track

The orbit data is extracted from the following two-line orbital elements,

1 20150U 89059B   16148.72471512 +.00000004 +00000-0 -11782-4 0  9996
2 20150 082.9404 020.0489 0027643 279.4713 140.8679 13.75621730347188
Epoch (UTC): 27 May 2016 17:23:35
Eccentricity: 0.0027643
inclination: 82.9404°
perigee height: 959 km
apogee height: 1000 km
right ascension of ascending node: 20.0489°
argument of perigee: 279.4713°
revolutions per day: 13.75621730
mean anomaly at epoch: 140.8679°
orbit number at epoch: 34718

The dashed part of the orbit path shows where the satellite is in the earth's shadow,  

DLR